This is the latest recevied weather packets stored in our database for station/object KJ7HSW. If no packets are shown the sender has not sent any weather packets the latest 1 day(s).
| Time | Temp. | Humidity | Pressure | Rain* | Wind** | Luminosity | Snow |
|---|---|---|---|---|---|---|---|
| 1778040395 | 15° C | 81% | 1014.2 hPa | 0 mm | 1.34 m/s, 212° | 0 W/m² | - |
| 1778040092 | 15° C | 80% | 1014.2 hPa | 0 mm | 0.89 m/s, 253° | 0 W/m² | - |
| 1778039789 | 15.56° C | 79% | 1014.1 hPa | 0 mm | 1.34 m/s, 292° | 0 W/m² | - |
| 1778039486 | 15.56° C | 80% | 1014.1 hPa | 0 mm | 0.89 m/s, 252° | 0 W/m² | - |
| 1778039183 | 15.56° C | 79% | 1014.3 hPa | 0 mm | 0.89 m/s, 246° | 0 W/m² | - |
| 1778038880 | 15.56° C | 80% | 1014.1 hPa | 0 mm | 1.34 m/s, 226° | 1 W/m² | - |
| 1778038577 | 15.56° C | 80% | 1014 hPa | 0 mm | 0.89 m/s, 262° | 2 W/m² | - |
| 1778038274 | 15.56° C | 79% | 1013.8 hPa | 0 mm | 0.89 m/s, 289° | 3 W/m² | - |
| 1778037972 | 16.11° C | 78% | 1013.9 hPa | 0 mm | 1.34 m/s, 219° | 5 W/m² | - |
| 1778037668 | 16.11° C | 78% | 1013.7 hPa | 0 mm | 0.89 m/s, 240° | 6 W/m² | - |
| 1778037365 | 16.11° C | 77% | 1013.9 hPa | 0 mm | 1.34 m/s, 249° | 8 W/m² | - |
| 1778037062 | 16.11° C | 78% | 1013.6 hPa | 0 mm | 0.89 m/s, 280° | 11 W/m² | - |
| 1778036761 | 16.67° C | 77% | 1013.5 hPa | 0 mm | 1.34 m/s, 261° | 13 W/m² | - |
| 1778036457 | 16.67° C | 77% | 1013.6 hPa | 0 mm | 1.34 m/s, 304° | 15 W/m² | - |
| 1778036154 | 16.67° C | 76% | 1013.5 hPa | 0 mm | 0.89 m/s, 277° | 18 W/m² | - |
| 1778035850 | 16.67° C | 76% | 1013.7 hPa | 0 mm | 1.34 m/s, 249° | 20 W/m² | - |
| 1778035548 | 16.67° C | 76% | 1013.7 hPa | 0 mm | 0.89 m/s, 310° | 22 W/m² | - |
| 1778035244 | 17.22° C | 75% | 1013.5 hPa | 0 mm | 0 m/s | 25 W/m² | - |
| 1778034940 | 17.22° C | 75% | 1013.7 hPa | 0 mm | 1.34 m/s, 244° | 27 W/m² | - |
| 1778034638 | 17.22° C | 73% | 1013.5 hPa | 0 mm | 0.89 m/s, 233° | 29 W/m² | - |
| 1778034335 | 17.78° C | 74% | 1013.7 hPa | 0 mm | 1.34 m/s, 263° | 31 W/m² | - |
| 1778034032 | 17.78° C | 73% | 1013.6 hPa | 0 mm | 1.34 m/s, 250° | 33 W/m² | - |
| 1778033730 | 18.33° C | 73% | 1013.6 hPa | 0 mm | 1.34 m/s, 260° | 34 W/m² | - |
| 1778033427 | 18.33° C | 71% | 1013.4 hPa | 0 mm | 0.89 m/s, 228° | 37 W/m² | - |
| 1778033125 | 18.89° C | 70% | 1013.6 hPa | 0 mm | 1.79 m/s, 243° | 39 W/m² | - |
* Rain latest hour (hover to see other rain measurements)
** Current wind speed in m/s (hover to see current wind gust speed)